• In Czech Republic
  • List of Countries
  • For 7 days
  • Water Temperature
  • Satellite Maps
  • Weather Map
  • Weather Widgets
  • user-avatar
    Login

    Hourly Weather Lewis

    Today, 15 December, Friday

    Time Temperature Precipitation Wind Pressure Humidity
    00:00 +3°C° 0.2 mm 14 mps 739 mmHg 67%
    01:00 +3°C° 0.1 mm 13 mps 740 mmHg 66%
    02:00 +3°C° 0.1 mm 13 mps 740 mmHg 66%
    03:00 +3°C° 0.1 mm 12 mps 741 mmHg 65%
    04:00 +3°C° 0.1 mm 11 mps 742 mmHg 66%
    05:00 +2°C° 0.1 mm 11 mps 743 mmHg 68%
    06:00 +2°C° 0.1 mm 10 mps 744 mmHg 69%
    07:00 +2°C° 0.1 mm 10 mps 745 mmHg 68%
    08:00 +2°C° 0.1 mm 10 mps 745 mmHg 68%
    09:00 +2°C° 0.1 mm 10 mps 746 mmHg 68%
    10:00 +2°C° 0.1 mm 9 mps 747 mmHg 66%
    11:00 +2°C° 0.1 mm 9 mps 747 mmHg 65%
    12:00 +2°C° 0.1 mm 9 mps 748 mmHg 63%
    13:00 +2°C° 0.2 mm 9 mps 748 mmHg 64%
    14:00 +2°C° 0.2 mm 9 mps 748 mmHg 65%
    15:00 +2°C° 0.2 mm 9 mps 749 mmHg 66%
    16:00 +1°C° 0.1 mm 9 mps 749 mmHg 66%
    17:00 +1°C° 0.1 mm 9 mps 749 mmHg 66%
    18:00 +1°C° 0.1 mm 9 mps 750 mmHg 66%
    19:00 +1°C° 0.1 mm 9 mps 750 mmHg 66%
    20:00 +1°C° 0.1 mm 8 mps 750 mmHg 65%
    21:00 +1°C° 0.1 mm 8 mps 751 mmHg 65%
    22:00 +2°C° 0.1 mm 7 mps 751 mmHg 66%
    23:00 +2°C° 0.1 mm 6 mps 751 mmHg 68%

    Tomorrow, 16 December, Saturday

    Time Temperature Precipitation Wind Pressure Humidity
    00:00 +2°C° 0.1 mm 5 mps 751 mmHg 70%
    01:00 +2°C° 0.2 mm 5 mps 751 mmHg 71%
    02:00 +3°C° 0.2 mm 4 mps 751 mmHg 71%
    03:00 +3°C° 0.2 mm 4 mps 751 mmHg 72%
    04:00 +3°C° 0.3 mm 4 mps 751 mmHg 73%
    05:00 +4°C° 0.3 mm 4 mps 751 mmHg 73%
    06:00 +4°C° 0.3 mm 4 mps 751 mmHg 74%
    07:00 +4°C° 0.1 mm 4 mps 751 mmHg 75%
    08:00 +3°C° 0.1 mm 4 mps 752 mmHg 76%
    09:00 +3°C° 0.1 mm 4 mps 752 mmHg 78%
    10:00 +3°C° 0 mm 3 mps 752 mmHg 77%
    11:00 +4°C° 0 mm 2 mps 753 mmHg 77%
    12:00 +4°C° 0 mm 2 mps 753 mmHg 77%
    13:00 +4°C° 0 mm 2 mps 753 mmHg 77%
    14:00 +4°C° 0 mm 2 mps 753 mmHg 77%
    15:00 +4°C° 0 mm 2 mps 753 mmHg 76%
    16:00 +4°C° 0 mm 2 mps 754 mmHg 76%
    17:00 +3°C° 0 mm 3 mps 754 mmHg 76%
    18:00 +4°C° 0 mm 3 mps 754 mmHg 75%
    19:00 +4°C° 0 mm 4 mps 754 mmHg 77%
    20:00 +5°C° 0 mm 5 mps 754 mmHg 78%
    21:00 +4°C° 0 mm 6 mps 754 mmHg 80%
    22:00 +5°C° 0 mm 7 mps 753 mmHg 81%
    23:00 +5°C° 0 mm 8 mps 752 mmHg 81%

    Day after tomorrow, 17 December, Sunday

    Time Temperature Precipitation Wind Pressure Humidity
    00:00 +5°C° 0 mm 9 mps 752 mmHg 82%
    01:00 +6°C° 0.2 mm 10 mps 751 mmHg 84%
    02:00 +6°C° 0.2 mm 11 mps 751 mmHg 86%
    03:00 +5°C° 0.2 mm 12 mps 750 mmHg 87%
    04:00 +7°C° 0.7 mm 12 mps 749 mmHg 89%
    05:00 +7°C° 0.7 mm 12 mps 748 mmHg 90%
    06:00 +7°C° 0.7 mm 12 mps 747 mmHg 92%
    07:00 +7°C° 1.3 mm 13 mps 746 mmHg 92%
    08:00 +7°C° 1.3 mm 13 mps 746 mmHg 92%
    09:00 +5°C° 1.3 mm 13 mps 745 mmHg 92%
    10:00 +5°C° 0.9 mm 13 mps 745 mmHg 89%
    11:00 +5°C° 0.9 mm 13 mps 746 mmHg 85%
    12:00 +5°C° 0.9 mm 13 mps 746 mmHg 82%
    13:00 +4°C° 0 mm 13 mps 747 mmHg 77%
    14:00 +4°C° 0 mm 12 mps 748 mmHg 71%
    15:00 +3°C° 0 mm 12 mps 750 mmHg 66%
    16:00 +3°C° 0 mm 11 mps 750 mmHg 66%
    17:00 +3°C° 0 mm 9 mps 751 mmHg 65%
    18:00 +4°C° 0 mm 8 mps 751 mmHg 65%
    19:00 +4°C° 0 mm 8 mps 752 mmHg 66%
    20:00 +4°C° 0 mm 8 mps 753 mmHg 67%
    21:00 +5°C° 0 mm 8 mps 754 mmHg 68%
    22:00 +4°C° 0 mm 8 mps 754 mmHg 70%
    23:00 +4°C° 0 mm 7 mps 754 mmHg 72%

    18 December, Monday

    Time Temperature Precipitation Wind Pressure Humidity
    00:00 +4°C° 0 mm 7 mps 755 mmHg 74%
    01:00 +4°C° 0 mm 7 mps 755 mmHg 75%
    02:00 +4°C° 0 mm 7 mps 755 mmHg 75%
    03:00 +4°C° 0 mm 6 mps 756 mmHg 76%
    04:00 +4°C° 0 mm 7 mps 756 mmHg 76%
    05:00 +5°C° 0 mm 8 mps 755 mmHg 76%
    06:00 +5°C° 0 mm 8 mps 755 mmHg 76%
    07:00 +5°C° 0 mm 9 mps 755 mmHg 77%
    08:00 +5°C° 0 mm 9 mps 756 mmHg 79%
    09:00 +5°C° 0 mm 10 mps 756 mmHg 80%
    10:00 +4°C° 0 mm 11 mps 756 mmHg 82%
    11:00 +6°C° 0 mm 11 mps 756 mmHg 84%
    12:00 +6°C° 0 mm 11 mps 755 mmHg 86%
    13:00 +6°C° 0 mm 11 mps 755 mmHg 88%
    14:00 +7°C° 0 mm 11 mps 755 mmHg 90%
    15:00 +7°C° 0 mm 11 mps 755 mmHg 92%
    16:00 +7°C° 0 mm 11 mps 755 mmHg 92%
    17:00 +8°C° 0 mm 10 mps 755 mmHg 93%
    18:00 +8°C° 0 mm 10 mps 755 mmHg 93%
    19:00 +8°C° 0 mm 10 mps 755 mmHg 93%
    20:00 +8°C° 0 mm 11 mps 756 mmHg 93%
    21:00 +8°C° 0 mm 11 mps 756 mmHg 93%
    22:00 +8°C° 0 mm 11 mps 756 mmHg 93%
    23:00 +8°C° 0 mm 11 mps 756 mmHg 93%

    19 December, Tuesday

    Time Temperature Precipitation Wind Pressure Humidity
    00:00 +8°C° 0 mm 11 mps 755 mmHg 93%
    01:00 +8°C° 0 mm 11 mps 755 mmHg 93%
    02:00 +9°C° 0 mm 11 mps 755 mmHg 93%
    03:00 +9°C° 0 mm 11 mps 755 mmHg 93%
    04:00 +9°C° 0 mm 11 mps 755 mmHg 93%
    05:00 +9°C° 0 mm 11 mps 755 mmHg 93%
    06:00 +9°C° 0 mm 11 mps 755 mmHg 93%
    07:00 +9°C° 0 mm 11 mps 755 mmHg 93%
    08:00 +9°C° 0 mm 11 mps 755 mmHg 94%
    09:00 +9°C° 0 mm 12 mps 755 mmHg 94%
    10:00 +9°C° 0 mm 12 mps 755 mmHg 93%
    11:00 +8°C° 0 mm 12 mps 755 mmHg 92%
    12:00 +8°C° 0 mm 13 mps 755 mmHg 91%
    13:00 +9°C° 0.2 mm 13 mps 754 mmHg 91%
    14:00 +9°C° 0.2 mm 13 mps 754 mmHg 91%
    15:00 +9°C° 0.2 mm 13 mps 754 mmHg 90%
    16:00 +8°C° 0.6 mm 12 mps 755 mmHg 89%
    17:00 +8°C° 0.6 mm 11 mps 755 mmHg 87%
    18:00 +7°C° 0.6 mm 10 mps 756 mmHg 86%
    19:00 +7°C° 0 mm 9 mps 757 mmHg 83%
    20:00 +7°C° 0 mm 8 mps 759 mmHg 80%
    21:00 +6°C° 0 mm 8 mps 760 mmHg 77%
    22:00 +6°C° 0 mm 7 mps 761 mmHg 76%
    23:00 +7°C° 0 mm 6 mps 761 mmHg 75%

    20 December, Wednesday

    Time Temperature Precipitation Wind Pressure Humidity
    00:00 +6°C° 0 mm 5 mps 762 mmHg 74%
    01:00 +6°C° 0 mm 5 mps 762 mmHg 75%
    02:00 +6°C° 0 mm 5 mps 763 mmHg 76%
    03:00 +6°C° 0 mm 5 mps 763 mmHg 77%
    04:00 +5°C° 0 mm 6 mps 763 mmHg 78%
    05:00 +5°C° 0 mm 7 mps 763 mmHg 78%
    06:00 +5°C° 0 mm 7 mps 763 mmHg 79%
    07:00 +5°C° 0 mm 8 mps 763 mmHg 78%
    08:00 +5°C° 0 mm 8 mps 763 mmHg 77%
    09:00 +5°C° 0 mm 8 mps 763 mmHg 76%
    10:00 +5°C° 0 mm 8 mps 763 mmHg 75%
    11:00 +6°C° 0 mm 8 mps 763 mmHg 74%
    12:00 +6°C° 0 mm 8 mps 762 mmHg 73%
    13:00 +6°C° 0 mm 9 mps 762 mmHg 73%
    14:00 +6°C° 0 mm 9 mps 761 mmHg 73%
    15:00 +6°C° 0 mm 10 mps 761 mmHg 73%
    16:00 +6°C° 0 mm 10 mps 760 mmHg 78%
    17:00 +6°C° 0 mm 11 mps 760 mmHg 83%
    18:00 +6°C° 0 mm 11 mps 759 mmHg 87%
    19:00 +6°C° 0 mm 11 mps 759 mmHg 88%
    20:00 +6°C° 0 mm 11 mps 758 mmHg 90%
    21:00 +7°C° 0 mm 11 mps 758 mmHg 91%
    22:00 +7°C° 0.1 mm 10 mps 757 mmHg 91%
    23:00 +7°C° 0.1 mm 10 mps 757 mmHg 92%
    Show more